| time (UTC) | temp C | wind direction | speed KPH | gust KPH | rain 1hr cm | rain 24hr cm | rain mn cm | humidity % | barometer mb |
| 20260504110218 | 2 | 109 | 0.0 | 0.0 | 0.00 | 0.00 | 0.00 | 99 | 1014.0 |
| 20260504100142 | 1 | 109 | 0.0 | 0.0 | 0.00 | 0.00 | 0.00 | 98 | 1014.4 |
| 20260504090105 | 1 | 108 | 0.0 | 0.0 | 0.00 | 0.00 | 0.00 | 98 | 1014.3 |
| 20260504081535 | 1 | 109 | 0.0 | 0.0 | 0.00 | 0.00 | 0.00 | 97 | 1014.3 |
| 20260504081031 | 1 | 109 | 0.0 | 0.0 | 0.00 | 0.00 | 0.00 | 97 | 1014.2 |
| 20260504080527 | 1 | 109 | 0.0 | 0.0 | 0.00 | 0.00 | 0.00 | 97 | 1014.2 |
| 20260504050340 | 2 | 109 | 0.0 | 0.0 | 0.00 | 0.00 | 0.00 | 94 | 1014.1 |
| 20260504045837 | 2 | 109 | 0.0 | 0.0 | 0.00 | 0.00 | 0.00 | 93 | 1014.3 |
| 20260504045332 | 3 | 109 | 0.0 | 0.0 | 0.00 | 0.00 | 0.00 | 93 | 1014.2 |
| 20260504044829 | 3 | 109 | 0.0 | 0.0 | 0.00 | 0.00 | 0.00 | 93 | 1014.3 |
| 20260504044326 | 3 | 109 | 0.0 | 0.0 | 0.00 | 0.00 | 0.00 | 93 | 1014.3 |
| 20260504043824 | 3 | 109 | 0.0 | 0.0 | 0.00 | 0.00 | 0.00 | 93 | 1014.3 |
| 20260504043321 | 3 | 109 | 0.0 | 0.0 | 0.00 | 0.00 | 0.00 | 93 | 1014.3 |
| 20260504042818 | 3 | 109 | 0.0 | 0.0 | 0.00 | 0.00 | 0.00 | 92 | 1014.3 |
| 20260504042314 | 3 | 109 | 0.0 | 0.0 | 0.00 | 0.00 | 0.00 | 92 | 1014.0 |
| 20260504041811 | 3 | 109 | 0.0 | 0.0 | 0.00 | 0.00 | 0.00 | 92 | 1014.0 |
| 20260504041307 | 3 | 109 | 0.0 | 0.0 | 0.00 | 0.00 | 0.00 | 92 | 1013.8 |
| 20260504040803 | 3 | 109 | 0.0 | 0.0 | 0.00 | 0.00 | 0.00 | 92 | 1013.9 |
| 20260504040301 | 3 | 109 | 0.0 | 0.0 | 0.00 | 0.00 | 0.00 | 92 | 1013.8 |
| 20260504035756 | 3 | 109 | 0.0 | 0.0 | 0.00 | 0.00 | 0.00 | 92 | 1013.8 |
| 20260504035254 | 3 | 109 | 0.0 | 0.0 | 0.00 | 0.00 | 0.00 | 91 | 1013.8 |
| 20260504034751 | 3 | 109 | 0.0 | 0.0 | 0.00 | 0.00 | 0.00 | 91 | 1013.9 |
| 20260504034249 | 3 | 109 | 0.0 | 0.0 | 0.00 | 0.00 | 0.00 | 91 | 1013.8 |
| 20260504033746 | 3 | 109 | 0.0 | 0.0 | 0.00 | 0.00 | 0.00 | 90 | 1013.7 |
| 20260504033243 | 3 | 109 | 0.0 | 0.0 | 0.00 | 0.00 | 0.00 | 90 | 1013.6 |
| 20260504032740 | 4 | 109 | 0.0 | 0.0 | 0.00 | 0.00 | 0.00 | 89 | 1013.6 |
| 20260504032237 | 4 | 109 | 0.0 | 0.0 | 0.00 | 0.00 | 0.00 | 89 | 1013.6 |
| 20260504031734 | 4 | 109 | 0.0 | 0.0 | 0.00 | 0.00 | 0.00 | 88 | 1013.7 |
| 20260504031231 | 4 | 109 | 0.0 | 0.0 | 0.00 | 0.00 | 0.00 | 88 | 1013.6 |
| 20260504030727 | 4 | 109 | 0.0 | 0.0 | 0.00 | 0.00 | 0.00 | 88 | 1013.7 |
| 20260504030225 | 5 | 109 | 0.0 | 0.0 | 0.00 | 0.00 | 0.00 | 87 | 1013.5 |
| 20260504025721 | 5 | 109 | 0.0 | 0.0 | 0.00 | 0.00 | 0.00 | 87 | 1013.6 |
| 20260504025218 | 5 | 109 | 0.0 | 0.0 | 0.00 | 0.00 | 0.00 | 86 | 1013.5 |
| 20260504024715 | 5 | 109 | 0.0 | 0.0 | 0.00 | 0.00 | 0.00 | 85 | 1013.6 |
| 20260504024211 | 5 | 109 | 0.0 | 0.0 | 0.00 | 0.00 | 0.00 | 84 | 1013.5 |
| 20260504023708 | 5 | 109 | 0.0 | 0.0 | 0.00 | 0.00 | 0.00 | 84 | 1013.5 |
| 20260504023204 | 5 | 109 | 0.0 | 0.0 | 0.00 | 0.00 | 0.00 | 84 | 1013.4 |
| 20260504022700 | 5 | 110 | 0.0 | 0.0 | 0.00 | 0.00 | 0.00 | 85 | 1013.5 |
| 20260504022156 | 5 | 109 | 0.0 | 0.0 | 0.00 | 0.00 | 0.00 | 84 | 1013.6 |
| 20260504021654 | 5 | 109 | 0.0 | 0.0 | 0.00 | 0.00 | 0.00 | 84 | 1013.5 |
| 20260504021150 | 5 | 109 | 0.0 | 0.0 | 0.00 | 0.00 | 0.00 | 84 | 1013.6 |
| 20260504020648 | 6 | 110 | 0.0 | 0.0 | 0.00 | 0.00 | 0.00 | 84 | 1013.6 |
| 20260504020143 | 6 | 110 | 0.0 | 0.0 | 0.00 | 0.00 | 0.00 | 82 | 1013.4 |
| 20260504015641 | 6 | 109 | 0.0 | 0.0 | 0.00 | 0.00 | 0.00 | 82 | 1013.5 |
| 20260504015137 | 6 | 109 | 0.0 | 0.0 | 0.00 | 0.00 | 0.00 | 82 | 1013.4 |
| 20260504014632 | 6 | 110 | 0.0 | 0.0 | 0.00 | 0.00 | 0.00 | 81 | 1013.6 |
| 20260504014130 | 6 | 110 | 0.0 | 0.0 | 0.00 | 0.00 | 0.00 | 82 | 1013.5 |
| 20260504013628 | 6 | 110 | 0.0 | 0.0 | 0.00 | 0.00 | 0.00 | 81 | 1013.4 |
| 20260504013124 | 7 | 110 | 0.0 | 0.0 | 0.00 | 0.00 | 0.00 | 81 | 1013.3 |
| 20260504012621 | 7 | 110 | 0.0 | 0.0 | 0.00 | 0.00 | 0.00 | 79 | 1013.2 |
| 20260504012120 | 7 | 110 | 0.0 | 1.6 | 0.00 | 0.00 | 0.00 | 77 | 1013.2 |
| 20260504011616 | 7 | 110 | 0.0 | 0.0 | 0.00 | 0.00 | 0.00 | 75 | 1013.3 |
| 20260504011112 | 7 | 110 | 0.0 | 0.0 | 0.00 | 0.00 | 0.00 | 75 | 1013.1 |
| 20260504010608 | 8 | 110 | 0.0 | 0.0 | 0.00 | 0.00 | 0.00 | 76 | 1012.9 |
| 20260504010104 | 8 | 110 | 0.0 | 0.0 | 0.00 | 0.00 | 0.00 | 74 | 1012.9 |
| 20260504005601 | 8 | 110 | 0.0 | 0.0 | 0.00 | 0.00 | 0.00 | 73 | 1012.7 |
| 20260504005058 | 8 | 110 | 0.0 | 0.0 | 0.00 | 0.00 | 0.00 | 71 | 1012.8 |
| 20260504004556 | 8 | 110 | 0.0 | 0.0 | 0.00 | 0.00 | 0.00 | 67 | 1012.8 |
| 20260504004053 | 9 | 110 | 0.0 | 0.0 | 0.00 | 0.00 | 0.00 | 66 | 1012.8 |
| 20260504003549 | 10 | 110 | 0.0 | 0.0 | 0.00 | 0.00 | 0.00 | 66 | 1012.7 |
| 20260504003046 | 10 | 110 | 0.0 | 0.0 | 0.00 | 0.00 | 0.00 | 64 | 1012.7 |
| 20260504002543 | 10 | 110 | 0.0 | 0.0 | 0.00 | 0.00 | 0.00 | 58 | 1012.4 |
| 20260504002041 | 11 | 110 | 0.0 | 0.0 | 0.00 | 0.00 | 0.00 | 58 | 1012.3 |
| 20260504001538 | 11 | 111 | 0.0 | 0.0 | 0.00 | 0.00 | 0.00 | 55 | 1012.2 |
| 20260504001034 | 11 | 110 | 0.0 | 0.0 | 0.00 | 0.00 | 0.00 | 53 | 1012.5 |
| 20260504000531 | 12 | 110 | 0.0 | 0.0 | 0.00 | 0.00 | 0.00 | 49 | 1012.3 |
| 20260504000029 | 12 | 109 | 0.0 | 0.0 | 0.00 | 0.00 | 0.00 | 48 | 1012.2 |
| 20260503235527 | 12 | 111 | 1.6 | 1.6 | 0.00 | 0.00 | 0.00 | 48 | 1012.3 |
| 20260503235023 | 12 | 106 | 0.0 | 0.0 | 0.00 | 0.00 | 0.00 | 51 | 1012.1 |
| 20260503234521 | 12 | 104 | 0.0 | 0.0 | 0.00 | 0.00 | 0.00 | 46 | 1012.1 |
| 20260503234019 | 13 | 87 | 0.0 | 1.6 | 0.00 | 0.00 | 0.00 | 44 | 1012.1 |
| 20260503233515 | 13 | 115 | 1.6 | 1.6 | 0.00 | 0.00 | 0.00 | 45 | 1012.1 |
| 20260503233011 | 13 | 79 | 0.0 | 0.0 | 0.00 | 0.00 | 0.00 | 45 | 1012.2 |
| 20260503232508 | 13 | 56 | 1.6 | 1.6 | 0.00 | 0.00 | 0.00 | 40 | 1012.0 |
| 20260503232006 | 13 | 103 | 0.0 | 0.0 | 0.00 | 0.00 | 0.00 | 43 | 1012.1 |
| 20260503231504 | 14 | 89 | 0.0 | 0.0 | 0.00 | 0.00 | 0.00 | 40 | 1012.1 |
| 20260503231000 | 14 | 79 | 0.0 | 1.6 | 0.00 | 0.00 | 0.00 | 37 | 1012.0 |
| 20260503230457 | 14 | 61 | 1.6 | 3.2 | 0.00 | 0.00 | 0.00 | 40 | 1011.9 |
| 20260503225954 | 14 | 42 | 1.6 | 1.6 | 0.00 | 0.00 | 0.00 | 40 | 1012.1 |
| 20260503225451 | 14 | 89 | 0.0 | 0.0 | 0.00 | 0.00 | 0.00 | 39 | 1012.0 |
| 20260503224946 | 14 | 35 | 0.0 | 1.6 | 0.00 | 0.00 | 0.00 | 43 | 1012.0 |
| 20260503224443 | 14 | 72 | 0.0 | 1.6 | 0.00 | 0.00 | 0.00 | 43 | 1011.9 |
| 20260503223941 | 15 | 51 | 1.6 | 1.6 | 0.00 | 0.00 | 0.00 | 37 | 1011.6 |
| 20260503223439 | 15 | 40 | 1.6 | 3.2 | 0.00 | 0.00 | 0.00 | 39 | 1011.7 |
| 20260503222934 | 15 | 79 | 0.0 | 0.0 | 0.00 | 0.00 | 0.00 | 38 | 1011.6 |
| 20260503222433 | 15 | 62 | 1.6 | 1.6 | 0.00 | 0.00 | 0.00 | 40 | 1011.7 |
| 20260503221931 | 15 | 91 | 0.0 | 0.0 | 0.00 | 0.00 | 0.00 | 36 | 1012.0 |
| 20260503221429 | 15 | 194 | 1.6 | 3.2 | 0.00 | 0.00 | 0.00 | 35 | 1011.9 |
| 20260503220926 | 15 | 63 | 1.6 | 1.6 | 0.00 | 0.00 | 0.00 | 35 | 1011.8 |
| 20260503220422 | 16 | 71 | 1.6 | 1.6 | 0.00 | 0.00 | 0.00 | 35 | 1012.0 |
| 20260503215919 | 16 | 18 | 3.2 | 3.2 | 0.00 | 0.00 | 0.00 | 33 | 1011.9 |
| 20260503215416 | 16 | 85 | 0.0 | 0.0 | 0.00 | 0.00 | 0.00 | 33 | 1012.1 |
| 20260503214914 | 16 | 65 | 0.0 | 1.6 | 0.00 | 0.00 | 0.00 | 35 | 1012.1 |
| 20260503214411 | 16 | 20 | 4.8 | 4.8 | 0.00 | 0.00 | 0.00 | 33 | 1012.1 |
| 20260503213908 | 15 | 36 | 4.8 | 4.8 | 0.00 | 0.00 | 0.00 | 34 | 1011.8 |
| 20260503213406 | 15 | 150 | 1.6 | 3.2 | 0.00 | 0.00 | 0.00 | 34 | 1012.0 |
| 20260503212902 | 16 | 33 | 1.6 | 1.6 | 0.00 | 0.00 | 0.00 | 35 | 1012.1 |
| 20260503212400 | 15 | 348 | 3.2 | 3.2 | 0.00 | 0.00 | 0.00 | 36 | 1012.0 |
| 20260503211857 | 15 | 338 | 3.2 | 3.2 | 0.00 | 0.00 | 0.00 | 33 | 1011.7 |
| 20260503211354 | 15 | 36 | 4.8 | 8.0 | 0.00 | 0.00 | 0.00 | 34 | 1011.9 |
| 20260503210849 | 16 | 60 | 1.6 | 1.6 | 0.00 | 0.00 | 0.00 | 36 | 1011.8 |
| 20260503210347 | 16 | 267 | 1.6 | 1.6 | 0.00 | 0.00 | 0.00 | 35 | 1011.9 |
| 20260503205841 | 16 | 200 | 1.6 | 3.2 | 0.00 | 0.00 | 0.00 | 33 | 1011.8 |
| 20260503205338 | 16 | 55 | 1.6 | 1.6 | 0.00 | 0.00 | 0.00 | 36 | 1011.8 |
| 20260503204834 | 15 | 276 | 3.2 | 3.2 | 0.00 | 0.00 | 0.00 | 34 | 1011.9 |
| 20260503204332 | 15 | 42 | 3.2 | 4.8 | 0.00 | 0.00 | 0.00 | 32 | 1012.2 |
| 20260503203829 | 15 | 283 | 4.8 | 4.8 | 0.00 | 0.00 | 0.00 | 32 | 1011.8 |
| 20260503203327 | 16 | 278 | 3.2 | 4.8 | 0.00 | 0.00 | 0.00 | 32 | 1012.1 |
| 20260503202823 | 15 | 5 | 1.6 | 3.2 | 0.00 | 0.00 | 0.00 | 34 | 1012.1 |
| 20260503202322 | 15 | 16 | 4.8 | 4.8 | 0.00 | 0.00 | 0.00 | 34 | 1012.3 |
| 20260503201820 | 16 | 43 | 4.8 | 8.0 | 0.00 | 0.00 | 0.00 | 34 | 1012.2 |
| 20260503201316 | 15 | 19 | 3.2 | 3.2 | 0.00 | 0.00 | 0.00 | 35 | 1012.2 |
| 20260503200814 | 15 | 39 | 1.6 | 3.2 | 0.00 | 0.00 | 0.00 | 37 | 1012.2 |
| 20260503200309 | 15 | 26 | 1.6 | 3.2 | 0.00 | 0.00 | 0.00 | 36 | 1012.4 |
| 20260503195807 | 15 | 32 | 3.2 | 3.2 | 0.00 | 0.00 | 0.00 | 34 | 1012.5 |
| 20260503195304 | 15 | 12 | 8.0 | 8.0 | 0.00 | 0.00 | 0.00 | 36 | 1012.4 |
| 20260503194801 | 15 | 12 | 3.2 | 8.0 | 0.00 | 0.00 | 0.00 | 36 | 1012.2 |
| 20260503194256 | 14 | 12 | 4.8 | 8.0 | 0.00 | 0.00 | 0.00 | 37 | 1012.4 |
| 20260503193753 | 14 | 53 | 0.0 | 0.0 | 0.00 | 0.00 | 0.00 | 38 | 1012.5 |
| 20260503193249 | 15 | 217 | 3.2 | 3.2 | 0.00 | 0.00 | 0.00 | 36 | 1012.7 |
| 20260503192745 | 15 | 305 | 3.2 | 4.8 | 0.00 | 0.00 | 0.00 | 35 | 1012.6 |
| 20260503192240 | 14 | 11 | 6.4 | 8.0 | 0.00 | 0.00 | 0.00 | 35 | 1012.8 |
| 20260503191737 | 14 | 12 | 4.8 | 4.8 | 0.00 | 0.00 | 0.00 | 36 | 1012.7 |
| 20260503191234 | 13 | 358 | 4.8 | 8.0 | 0.00 | 0.00 | 0.00 | 40 | 1012.8 |
| 20260503190731 | 14 | 92 | 1.6 | 1.6 | 0.00 | 0.00 | 0.00 | 38 | 1013.0 |
| 20260503190228 | 15 | 32 | 4.8 | 8.0 | 0.00 | 0.00 | 0.00 | 37 | 1012.9 |
| 20260503185725 | 15 | 55 | 0.0 | 1.6 | 0.00 | 0.00 | 0.00 | 40 | 1012.9 |
| 20260503185220 | 15 | 344 | 1.6 | 1.6 | 0.00 | 0.00 | 0.00 | 34 | 1012.9 |
| 20260503184715 | 15 | 343 | 3.2 | 4.8 | 0.00 | 0.00 | 0.00 | 36 | 1012.8 |
| 20260503184212 | 14 | 80 | 3.2 | 4.8 | 0.00 | 0.00 | 0.00 | 38 | 1012.9 |
| 20260503183708 | 15 | 151 | 4.8 | 8.0 | 0.00 | 0.00 | 0.00 | 35 | 1013.1 |
| 20260503183206 | 15 | 20 | 6.4 | 8.0 | 0.00 | 0.00 | 0.00 | 35 | 1012.9 |
| 20260503182704 | 14 | 96 | 0.0 | 1.6 | 0.00 | 0.00 | 0.00 | 37 | 1013.0 |
| 20260503182202 | 14 | 28 | 4.8 | 4.8 | 0.00 | 0.00 | 0.00 | 37 | 1012.9 |
| 20260503181658 | 14 | 98 | 0.0 | 0.0 | 0.00 | 0.00 | 0.00 | 37 | 1013.1 |
| 20260503181155 | 15 | 297 | 6.4 | 8.0 | 0.00 | 0.00 | 0.00 | 36 | 1013.3 |
| 20260503180652 | 13 | 64 | 1.6 | 1.6 | 0.00 | 0.00 | 0.00 | 37 | 1013.0 |
| 20260503180150 | 13 | 30 | 1.6 | 3.2 | 0.00 | 0.00 | 0.00 | 37 | 1013.0 |
| 20260503175646 | 13 | 45 | 1.6 | 3.2 | 0.00 | 0.00 | 0.00 | 38 | 1013.1 |
| 20260503175144 | 13 | 341 | 4.8 | 8.0 | 0.00 | 0.00 | 0.00 | 38 | 1013.3 |
| 20260503174640 | 13 | 39 | 4.8 | 8.0 | 0.00 | 0.00 | 0.00 | 40 | 1012.8 |
| 20260503174137 | 13 | 11 | 3.2 | 3.2 | 0.00 | 0.00 | 0.00 | 36 | 1013.2 |
| 20260503173632 | 13 | 25 | 1.6 | 3.2 | 0.00 | 0.00 | 0.00 | 40 | 1013.3 |
| 20260503173130 | 13 | 219 | 3.2 | 3.2 | 0.00 | 0.00 | 0.00 | 36 | 1013.3 |
| 20260503172626 | 13 | 52 | 0.0 | 1.6 | 0.00 | 0.00 | 0.00 | 38 | 1013.3 |
| 20260503172124 | 13 | 55 | 1.6 | 1.6 | 0.00 | 0.00 | 0.00 | 39 | 1013.4 |
| 20260503171620 | 12 | 322 | 3.2 | 8.0 | 0.00 | 0.00 | 0.00 | 41 | 1013.5 |
| 20260503171117 | 12 | 40 | 3.2 | 4.8 | 0.00 | 0.00 | 0.00 | 40 | 1013.5 |
| 20260503170614 | 12 | 335 | 1.6 | 1.6 | 0.00 | 0.00 | 0.00 | 41 | 1013.5 |
| 20260503170111 | 12 | 94 | 1.6 | 1.6 | 0.00 | 0.00 | 0.00 | 41 | 1013.5 |
| 20260503151006 | 10 | 35 | 6.4 | 8.0 | 0.00 | 0.00 | 0.00 | 46 | 1014.3 |
| 20260503150503 | 10 | 47 | 4.8 | 4.8 | 0.00 | 0.00 | 0.00 | 49 | 1014.1 |
| 20260503131355 | 8 | 51 | 0.0 | 1.6 | 0.00 | 0.00 | 0.00 | 57 | 1013.9 |
| 20260503130853 | 8 | 41 | 3.2 | 3.2 | 0.00 | 0.00 | 0.00 | 59 | 1013.8 |
| 20260503130350 | 8 | 13 | 6.4 | 8.0 | 0.00 | 0.00 | 0.00 | 58 | 1013.9 |